Location: Barrio Las Umbrías
(40.4173°N, 4.8685°W)
Time: 11:57:18
(UTC+00:00)

Cosmos 1743 Rocket - Pass Details

Date: 17 August 2022
Orbit: 604 x 631 km, 82.6° (Epoch: 28 September)

Event Time Altitude Azimuth Distance (km) Brightness Sun altitude
Exits shadow 21:29:23 53° 60° (ENE) 754 3.8 -22.9°
Drops below altitude 10° 21:33:06 10° 16° (NNE) 1,978 6.5 -23.4°
Sets 21:35:22 0° 12° (NNE) 2,892 7.4 -23.7°
